| time (UTC) | temp F | wind direction | speed knots | gust knots | rain 1hr in | rain 24hr in | rain mn in | humidity % | barometer mb |
| 20260831053047 | 72 | 0 | 0.0 | 0.9 | 0.00 | 0.31 | 0.00 | 86 | 1015.1 |
| 20260831051552 | 72 | 0 | 0.0 | 0.0 | 0.00 | 0.31 | 0.00 | 85 | 1015.0 |
| 20260831050045 | 72 | 0 | 0.0 | 0.9 | 0.00 | 0.31 | 0.00 | 85 | 1015.1 |
| 20260831044551 | 73 | 0 | 0.9 | 4.3 | 0.00 | 0.31 | 0.31 | 85 | 1015.1 |
| 20260831043047 | 73 | 275 | 0.0 | 4.3 | 0.00 | 0.31 | 0.31 | 84 | 1014.9 |
| 20260831041635 | 73 | 274 | 1.7 | 5.2 | 0.00 | 0.31 | 0.31 | 84 | 1014.4 |
| 20260831040043 | 73 | 252 | 1.7 | 4.3 | 0.00 | 0.31 | 0.31 | 84 | 1014.5 |
| 20260831034545 | 73 | 212 | 1.7 | 4.3 | 0.00 | 0.31 | 0.31 | 85 | 1014.0 |
| 20260831033042 | 72 | 225 | 1.7 | 6.1 | 0.00 | 0.31 | 0.31 | 85 | 1013.8 |
| 20260831031545 | 72 | 202 | 1.7 | 5.2 | 0.00 | 0.31 | 0.31 | 85 | 1014.0 |
| 20260831030050 | 72 | 278 | 0.9 | 4.3 | 0.00 | 0.31 | 0.31 | 85 | 1014.6 |
| 20260831024602 | 73 | 245 | 1.7 | 7.0 | 0.00 | 0.31 | 0.31 | 85 | 1015.0 |
| 20260831023045 | 73 | 229 | 0.9 | 7.0 | 0.00 | 0.31 | 0.31 | 85 | 1014.9 |
| 20260831021549 | 72 | 216 | 1.7 | 5.2 | 0.00 | 0.31 | 0.31 | 85 | 1014.6 |
| 20260831020043 | 72 | 227 | 1.7 | 6.1 | 0.00 | 0.31 | 0.31 | 85 | 1014.8 |
| 20260831014549 | 72 | 234 | 2.6 | 7.8 | 0.00 | 0.31 | 0.31 | 85 | 1014.5 |
| 20260831013052 | 72 | 200 | 4.3 | 11.3 | 0.00 | 0.31 | 0.31 | 85 | 1014.7 |
| 20260831011551 | 72 | 274 | 2.6 | 10.4 | 0.00 | 0.31 | 0.31 | 86 | 1014.6 |
| 20260831010114 | 72 | 249 | 2.6 | 7.8 | 0.00 | 0.31 | 0.31 | 86 | 1014.2 |
| 20260831004544 | 72 | 182 | 1.7 | 8.7 | 0.00 | 0.31 | 0.31 | 86 | 1014.2 |
| 20260831003044 | 72 | 223 | 1.7 | 6.1 | 0.00 | 0.31 | 0.31 | 86 | 1013.8 |
| 20260831001548 | 73 | 259 | 2.6 | 7.8 | 0.00 | 0.31 | 0.31 | 85 | 1013.8 |
| 20260830234543 | 74 | 200 | 0.9 | 5.2 | 0.00 | 0.31 | 0.31 | 84 | 1013.7 |
| 20260830233051 | 74 | 226 | 0.9 | 6.1 | 0.00 | 0.31 | 0.31 | 84 | 1013.9 |
| 20260830231548 | 74 | 224 | 0.9 | 7.0 | 0.00 | 0.31 | 0.31 | 85 | 1013.9 |
| 20260830230053 | 74 | 224 | 0.9 | 6.1 | 0.00 | 0.31 | 0.31 | 85 | 1013.8 |
| 20260830224549 | 74 | 225 | 0.9 | 4.3 | 0.00 | 0.41 | 0.31 | 85 | 1013.8 |
| 20260830223125 | 74 | 138 | 2.6 | 5.2 | 0.00 | 0.41 | 0.31 | 84 | 1013.9 |
| 20260830221552 | 74 | 164 | 1.7 | 3.5 | 0.00 | 0.41 | 0.31 | 84 | 1014.1 |
| 20260830220046 | 74 | 217 | 1.7 | 5.2 | 0.00 | 0.41 | 0.31 | 83 | 1014.0 |
| 20260830214543 | 74 | 214 | 1.7 | 5.2 | 0.00 | 0.48 | 0.31 | 82 | 1013.9 |
| 20260830213043 | 75 | 136 | 2.6 | 9.6 | 0.00 | 0.48 | 0.31 | 81 | 1013.8 |
| 20260830211542 | 75 | 203 | 3.5 | 10.4 | 0.00 | 0.48 | 0.31 | 80 | 1013.9 |
| 20260830210045 | 75 | 243 | 4.3 | 11.3 | 0.00 | 0.48 | 0.31 | 79 | 1013.9 |
| 20260830204547 | 75 | 259 | 3.5 | 11.3 | 0.00 | 0.48 | 0.31 | 79 | 1013.8 |
| 20260830203045 | 76 | 247 | 5.2 | 13.9 | 0.00 | 0.48 | 0.31 | 76 | 1013.8 |
| 20260830201546 | 77 | 214 | 4.3 | 12.2 | 0.00 | 0.48 | 0.31 | 75 | 1013.9 |
| 20260830200043 | 78 | 242 | 4.3 | 17.4 | 0.00 | 0.48 | 0.31 | 72 | 1014.0 |
| 20260830194600 | 79 | 231 | 7.8 | 17.4 | 0.00 | 0.48 | 0.31 | 69 | 1014.1 |
| 20260830193059 | 80 | 256 | 8.7 | 19.1 | 0.00 | 0.48 | 0.31 | 68 | 1014.0 |
| 20260830191542 | 81 | 263 | 9.6 | 22.6 | 0.00 | 0.48 | 0.31 | 66 | 1014.0 |
| 20260830190043 | 81 | 236 | 8.7 | 20.9 | 0.00 | 0.48 | 0.31 | 64 | 1014.0 |
| 20260830184557 | 81 | 171 | 9.6 | 21.7 | 0.00 | 0.48 | 0.31 | 63 | 1013.9 |
| 20260830183046 | 83 | 216 | 7.8 | 15.6 | 0.00 | 0.48 | 0.31 | 62 | 1013.6 |
| 20260830181542 | 84 | 253 | 8.7 | 20.0 | 0.00 | 0.48 | 0.31 | 58 | 1013.4 |
| 20260830180042 | 86 | 259 | 4.3 | 11.3 | 0.00 | 0.48 | 0.31 | 57 | 1013.2 |
| 20260830174544 | 86 | 203 | 6.1 | 17.4 | 0.00 | 0.48 | 0.31 | 58 | 1013.0 |
| 20260830173044 | 86 | 271 | 5.2 | 14.8 | 0.00 | 0.48 | 0.31 | 59 | 1013.0 |
| 20260830171609 | 85 | 262 | 4.3 | 11.3 | 0.00 | 0.48 | 0.31 | 62 | 1013.1 |
| 20260830170048 | 84 | 197 | 4.3 | 13.0 | 0.00 | 0.48 | 0.31 | 62 | 1013.3 |
| 20260830164540 | 84 | 223 | 4.3 | 12.2 | 0.00 | 0.48 | 0.31 | 62 | 1013.3 |
| 20260830163050 | 82 | 262 | 4.3 | 13.0 | 0.00 | 0.48 | 0.31 | 64 | 1013.4 |
| 20260830161543 | 81 | 252 | 2.6 | 8.7 | 0.00 | 0.48 | 0.31 | 67 | 1013.5 |
| 20260830160043 | 81 | 217 | 3.5 | 7.0 | 0.00 | 0.48 | 0.31 | 67 | 1013.6 |
| 20260830154548 | 80 | 161 | 2.6 | 7.0 | 0.00 | 0.48 | 0.31 | 71 | 1013.9 |
| 20260830153047 | 79 | 181 | 2.6 | 6.1 | 0.00 | 0.48 | 0.31 | 72 | 1013.7 |
| 20260830151546 | 78 | 250 | 1.7 | 9.6 | 0.00 | 0.48 | 0.31 | 75 | 1013.7 |
| 20260830150044 | 77 | 217 | 0.9 | 6.1 | 0.00 | 0.48 | 0.31 | 77 | 1013.6 |
| 20260830144546 | 75 | 224 | 0.9 | 6.1 | 0.00 | 0.48 | 0.31 | 79 | 1013.5 |
| 20260830143046 | 74 | 220 | 2.6 | 7.0 | 0.00 | 0.48 | 0.31 | 80 | 1013.6 |
| 20260830141543 | 73 | 219 | 1.7 | 6.1 | 0.00 | 0.48 | 0.31 | 83 | 1013.9 |
| 20260830140042 | 72 | 206 | 1.7 | 7.0 | 0.00 | 0.48 | 0.31 | 84 | 1013.9 |
| 20260830134545 | 70 | 191 | 1.7 | 5.2 | 0.00 | 0.48 | 0.31 | 86 | 1013.9 |
| 20260830133043 | 69 | 192 | 1.7 | 7.8 | 0.00 | 0.48 | 0.31 | 87 | 1013.9 |
| 20260830131546 | 68 | 163 | 1.7 | 7.0 | 0.00 | 0.48 | 0.31 | 87 | 1014.0 |
| 20260830130056 | 68 | 173 | 1.7 | 4.3 | 0.01 | 0.48 | 0.31 | 87 | 1014.2 |
| 20260830124545 | 68 | 231 | 1.7 | 7.0 | 0.02 | 0.48 | 0.31 | 87 | 1014.2 |
| 20260830123043 | 67 | 193 | 2.6 | 7.8 | 0.03 | 0.48 | 0.31 | 87 | 1014.2 |
| 20260830121555 | 67 | 228 | 2.6 | 9.6 | 0.03 | 0.48 | 0.31 | 87 | 1014.4 |
| 20260830120047 | 68 | 255 | 2.6 | 7.8 | 0.02 | 0.47 | 0.30 | 87 | 1014.3 |
| 20260830114543 | 68 | 184 | 1.7 | 9.6 | 0.04 | 0.46 | 0.29 | 87 | 1014.1 |
| 20260830113100 | 67 | 264 | 2.6 | 5.2 | 0.07 | 0.45 | 0.28 | 87 | 1013.9 |
| 20260830111547 | 67 | 231 | 0.9 | 2.6 | 0.13 | 0.45 | 0.28 | 87 | 1013.9 |
| 20260830110057 | 67 | 217 | 0.9 | 3.5 | 0.14 | 0.45 | 0.28 | 87 | 1013.8 |
| 20260830104545 | 67 | 226 | 0.9 | 5.2 | 0.20 | 0.42 | 0.25 | 86 | 1013.8 |
| 20260830103044 | 68 | 243 | 4.3 | 12.2 | 0.16 | 0.38 | 0.21 | 85 | 1013.8 |
| 20260830101543 | 68 | 264 | 2.6 | 13.0 | 0.10 | 0.32 | 0.15 | 87 | 1013.4 |
| 20260830100058 | 68 | 103 | 2.6 | 8.7 | 0.08 | 0.30 | 0.13 | 87 | 1013.3 |
| 20260830094543 | 68 | 242 | 2.6 | 7.8 | 0.00 | 0.22 | 0.05 | 86 | 1013.8 |
| 20260830093049 | 68 | 217 | 1.7 | 4.3 | 0.00 | 0.22 | 0.05 | 85 | 1013.8 |
| 20260830091545 | 68 | 215 | 1.7 | 4.3 | 0.03 | 0.22 | 0.05 | 85 | 1013.8 |
| 20260830090043 | 68 | 248 | 0.9 | 2.6 | 0.03 | 0.22 | 0.05 | 85 | 1014.3 |
| 20260830084614 | 67 | 237 | 0.0 | 2.6 | 0.03 | 0.22 | 0.05 | 86 | 1014.1 |
| 20260830083047 | 67 | 167 | 0.9 | 1.7 | 0.03 | 0.22 | 0.05 | 87 | 1013.9 |
| 20260830081557 | 67 | 153 | 0.0 | 0.9 | 0.00 | 0.19 | 0.02 | 87 | 1014.2 |
| 20260830080216 | 67 | 224 | 0.0 | 0.9 | 0.02 | 0.19 | 0.02 | 87 | 1014.6 |
| 20260830074546 | 67 | 161 | 0.0 | 0.9 | 0.02 | 0.19 | 0.02 | 87 | 1014.0 |
| 20260830073048 | 68 | 0 | 0.0 | 0.9 | 0.02 | 0.19 | 0.02 | 86 | 1014.4 |
| 20260830071553 | 68 | 0 | 0.0 | 2.6 | 0.02 | 0.19 | 0.02 | 85 | 1014.6 |
| 20260830070043 | 69 | 0 | 0.0 | 2.6 | 0.00 | 0.17 | 0.00 | 82 | 1015.1 |
| 20260830064542 | 69 | 207 | 0.9 | 1.7 | 0.00 | 0.17 | 0.00 | 82 | 1015.1 |
| 20260830063048 | 69 | 0 | 0.0 | 1.7 | 0.00 | 0.17 | 0.00 | 83 | 1015.4 |
| 20260830061539 | 69 | 130 | 0.0 | 1.7 | 0.00 | 0.17 | 0.00 | 83 | 1015.4 |
| 20260830060042 | 69 | 167 | 0.0 | 1.7 | 0.00 | 0.17 | 0.00 | 83 | 1015.6 |
| 20260830054544 | 69 | 231 | 0.0 | 1.7 | 0.00 | 0.17 | 0.00 | 82 | 1015.7 |